Flag for USA

Past Weather in Phoenix, Arizona, USA — Yesterday and Last 2 Weeks

Now
59 °F

Passing clouds.


Feels Like: 57 °F
Forecast: 67 / 50 °F
Wind: 13 mph from Northeast

Location: Phoenix Sky Harbor International Airport
Current Time: Oct 26, 2020 at 8:55:34 pm
Latest Report: Oct 26, 2020 at 7:51 pm
Visibility: 10 mi
Pressure29.81 "Hg
Humidity: 22%
Dew Point: 20 °F
Location of PhoenixLocation

Past Weather in Phoenix — Graph

°F

Phoenix Temperature Yesterday

Maximum temperature yesterday: 88 °F (at 2:51 pm)
Minimum temperature yesterday: 69 °F (at 4:51 am)
Average temperature yesterday: 76 °F

High & Low Weather Summary for the Past Weeks

 TemperatureHumidityPressure
High100 °F (Oct 13, 2:51 pm)47% (Oct 26, 3:51 am)29.99 "Hg (Oct 26, 3:51 am)
Low61 °F (Oct 26, 9:51 am)7% (Oct 14, 3:51 pm)29.56 "Hg (Oct 25, 5:51 pm)
Average81 °F22%29.80 "Hg
* Reported Oct 11 6:51 pm — Oct 26 6:51 pm, Phoenix. Weather by CustomWeather, © 2020

Note: Actual official high and low records may vary slightly from our data, if they occured in-between our weather recording intervals... More about our weather records

Phoenix Weather History for the Previous 24 Hours

Scroll right to see more
 ConditionsComfort  
Time TempWeatherWind HumidityBarometerVisibility
6:51 pm
Mon, Oct 26
61 °FPassing clouds.12 mph13%29.79 "Hg10 mi
5:51 pm62 °FPassing clouds.10 mph13%29.75 "Hg10 mi
4:51 pm65 °FPassing clouds.12 mph13%29.74 "Hg10 mi
3:51 pm65 °FPassing clouds.14 mph12%29.75 "Hg10 mi
2:51 pm65 °FPassing clouds.13 mph11%29.76 "Hg10 mi
1:51 pm65 °FPassing clouds.15 mph10%29.77 "Hg10 mi
12:51 pm65 °FPassing clouds.15 mph11%29.78 "Hg10 mi
11:51 am65 °FScattered clouds.20 mph12%29.80 "Hg10 mi
10:51 am61 °FBroken clouds.21 mph14%29.81 "Hg10 mi
9:51 am61 °FBroken clouds.21 mph14%29.81 "Hg10 mi
8:51 am62 °FPartly sunny.17 mph14%29.80 "Hg10 mi
7:51 am64 °FPartly sunny.20 mph15%29.75 "Hg10 mi
6:51 am64 °FPartly sunny.15 mph23%29.72 "Hg10 mi
5:51 am65 °FPassing clouds.17 mph34%29.70 "Hg10 mi
4:51 am66 °FPassing clouds.17 mph45%29.67 "Hg10 mi
3:51 am66 °FPassing clouds.12 mph47%29.66 "Hg10 mi
2:51 am67 °FPassing clouds.7 mph44%29.67 "Hg10 mi
1:51 am69 °FPassing clouds.10 mph41%29.66 "Hg10 mi
12:51 am72 °FMostly cloudy.6 mph35%29.65 "Hg10 mi
11:51 pm
Sun, Oct 25
73 °FPassing clouds.10 mph37%29.65 "Hg10 mi
10:51 pm73 °FPartly cloudy.8 mph40%29.65 "Hg10 mi
9:51 pm75 °FPassing clouds.9 mph36%29.64 "Hg10 mi
8:51 pm75 °FPassing clouds.7 mph36%29.62 "Hg10 mi
Weather by CustomWeather, © 2020

See weather overview